This is the latest recevied weather packets stored in our database for station/object KB9MLJ. If no packets are shown the sender has not sent any weather packets the latest 10 day(s).
| Time | Temp. | Humidity | Pressure | Rain* | Wind** | Luminosity | Snow |
|---|---|---|---|---|---|---|---|
| 1777988093 | 9.44° C | 80% | 1009.2 hPa | 0 mm | - | 60 W/m² | - |
| 1777987788 | 9.44° C | 80% | 1009.9 hPa | 0 mm | - | 54 W/m² | - |
| 1777987485 | 9.44° C | 78% | 1009.9 hPa | 0 mm | - | 50 W/m² | - |
| 1777987183 | 10° C | 79% | 1009.9 hPa | 0 mm | - | 50 W/m² | - |
| 1777986880 | 10° C | 80% | 1009.9 hPa | 0 mm | - | 28 W/m² | - |
| 1777986578 | 10° C | 80% | 1009.9 hPa | 0 mm | - | 31 W/m² | - |
| 1777986275 | 10° C | 79% | 1009.5 hPa | 0 mm | - | 20 W/m² | - |
| 1777985972 | 10° C | 77% | 1009.2 hPa | 0 mm | - | 24 W/m² | - |
| 1777985670 | 10.56° C | 77% | 1008.8 hPa | 0 mm | - | 19 W/m² | - |
| 1777985366 | 10° C | 76% | 1008.8 hPa | 0 mm | - | 19 W/m² | - |
| 1777985063 | 10° C | 78% | 1008.5 hPa | 0 mm | - | 19 W/m² | - |
| 1777984759 | 10° C | 78% | 1008.5 hPa | 0 mm | - | 9 W/m² | - |
| 1777984456 | 10° C | 77% | 1008.2 hPa | 0 mm | - | 12 W/m² | - |
| 1777984151 | 10° C | 77% | 1007.8 hPa | 0 mm | - | 12 W/m² | - |
| 1777983850 | 10.56° C | 76% | 1007.8 hPa | 0 mm | - | 10 W/m² | - |
| 1777983546 | 10.56° C | 75% | 1008.2 hPa | 0 mm | - | 10 W/m² | - |
| 1777983243 | 10.56° C | 75% | 1007.8 hPa | 0 mm | - | 9 W/m² | - |
| 1777982939 | 10.56° C | 74% | 1007.8 hPa | 0 mm | - | 6 W/m² | - |
| 1777982635 | 10.56° C | 74% | 1007.8 hPa | 0 mm | - | 6 W/m² | - |
| 1777982334 | 10.56° C | 73% | 1007.8 hPa | 0 mm | - | 6 W/m² | - |
| 1777982031 | 10.56° C | 73% | 1007.5 hPa | 0 mm | - | 6 W/m² | - |
| 1777981729 | 10.56° C | 72% | 1006.8 hPa | 0 mm | - | 8 W/m² | - |
| 1777981425 | 11.11° C | 72% | 1006.8 hPa | 0 mm | - | 9 W/m² | - |
| 1777981122 | 11.11° C | 71% | 1006.8 hPa | 0 mm | - | 12 W/m² | - |
| 1777980819 | 11.11° C | 71% | 1006.5 hPa | 0 mm | - | 12 W/m² | - |
* Rain latest hour (hover to see other rain measurements)
** Current wind speed in m/s (hover to see current wind gust speed)